#timestamp,LO_Frequency,Hit,StdDev 
1637964015.8,286047008.7,Y
1637964035.7,286047007.1,P
1637964055.5,286047006.9,P
1637964075.3,286047014.0,P
1637964095.2,286047014.5,Y
1637964115.0,286047012.1,P
1637964115.9,286047012.1,P
1637964135.8,286047009.8,P
1637964155.6,286047013.9,Y
1637964175.4,286047006.8,P
1637964195.3,286047011.8,P
1637964215.1,286047013.7,P
1637964235.9,286047010.7,Y
1637964255.7,286046993.7,P
1637964275.5,286046994.2,N
1637964295.4,286046992.2,N
1637964315.2,286046990.3,N
1637964335.0,286046991.1,N
1637964336.0,286046991.1,N
1637964355.8,286046982.7,N
1637964375.6,286046982.5,N
1637964395.5,286046986.0,N
1637964415.3,286046987.1,N
1637964435.1,286046992.7,N
1637964455.9,286046996.7,N
1637964475.7,286046997.5,N
1637964495.5,286047001.2,N
1637964515.4,286046988.9,N
1637964535.2,286046985.2,N
1637964555.1,286046982.8,N
1637964556.0,286046982.8,N
1637964575.8,286046982.4,N
1637964595.6,286046987.0,N
1637964615.5,286046994.5,N
1637964635.3,286046990.4,N
1637964655.1,286046993.9,N
1637964675.9,286046987.3,N
1637964695.7,286046988.4,N
1637964715.6,286046984.7,N
1637964735.4,286046977.4,Y
1637964755.2,286046982.4,P
1637964775.1,286046985.0,P
1637964776.0,286046985.0,P
1637964795.8,286046985.7,Y
1637964815.7,286046996.6,P
1637964835.5,286046994.5,N
1637964855.3,286046992.3,N
1637964875.2,286046991.0,N
1637964895.9,286046990.4,N
1637964915.7,286046987.6,Y
1637964935.6,286046995.7,P
1637964955.4,286046993.9,P
1637964975.3,286046991.7,P
1637964995.1,286046985.4,Y
1637964996.0,286046985.4,P
1637965015.8,286046993.2,N
1637965035.7,286046994.0,N
1637965055.5,286047000.5,N
1637965075.3,286046996.9,N
1637965095.2,286046998.6,N
1637965115.0,286047005.6,N
1637965115.9,286047005.6,N
1637965135.8,286047006.2,N
1637965155.6,286047011.8,N
1637965175.4,286047015.5,N
1637965195.3,286047019.4,N
1637965215.1,286047020.8,N
1637965235.8,286047018.4,N
1637965255.7,286047013.8,N
1637965275.5,286047009.2,N
1637965295.4,286046998.3,N
1637965315.2,286046996.2,N
1637965335.0,286046990.9,N
1637965335.9,286046990.9,N
1637965355.8,286046987.8,N
1637965375.6,286046985.8,N
1637965395.4,286046993.3,N
1637965415.3,286046994.8,N
1637965435.1,286046997.0,N
1637965455.9,286046998.8,N
1637965475.7,286047004.9,N
1637965495.5,286047012.1,N
1637965515.4,286047009.8,N
1637965535.2,286047010.2,N
1637965555.1,286047010.4,N
1637965556.0,286047010.4,N
1637965575.8,286047007.8,N
1637965595.6,286047009.1,N
1637965615.5,286047010.9,N
1637965635.3,286047011.3,N
1637965655.1,286047011.3,N
1637965675.9,286047014.0,N
1637965695.7,286047013.4,N
1637965715.6,286047015.2,N
1637965735.4,286047015.6,N
1637965755.2,286047015.4,N
1637965775.1,286047018.5,N
1637965776.0,286047018.5,N
1637965795.8,286047021.2,N
1637965815.6,286047019.9,N
1637965835.5,286047012.4,N
1637965855.3,286047013.0,N
1637965875.2,286047016.0,N
1637965895.9,286047020.0,N
1637965915.7,286047016.7,N
1637965935.6,286047018.7,N
1637965955.4,286047018.9,N
1637965975.2,286047013.4,N
1637965995.1,286047014.2,N
1637965996.0,286047014.2,N
1637966015.8,286047023.9,Y
1637966035.7,286047009.3,P
1637966055.5,286047011.3,P
1637966075.3,286047016.6,P
1637966095.2,286047014.7,Y
1637966115.0,286046997.0,P
1637966115.9,286046997.0,N
1637966135.8,286046995.1,N
1637966155.6,286046998.0,N
1637966175.4,286046991.9,N
1637966195.3,286046985.4,N
1637966215.1,286046982.0,N
1637966235.8,286046975.7,N
1637966255.7,286046969.4,Y
1637966275.5,286046983.4,P
1637966295.4,286046978.6,P
1637966315.2,286046974.9,P
1637966335.0,286046974.8,Y
1637966335.9,286046974.8,P
1637966355.8,286046989.3,N
1637966375.6,286046984.9,N
1637966395.5,286046981.8,Y
1637966415.3,286046991.9,P
1637966435.1,286046996.0,N
1637966455.9,286046990.3,N
1637966475.7,286046996.3,N
1637966495.5,286046998.2,N
1637966515.4,286047007.2,N
1637966535.2,286047010.3,N
1637966555.1,286047017.3,N
1637966556.0,286047017.3,N
1637966575.8,286047025.0,N
1637966595.6,286047024.1,N
1637966615.5,286047023.4,N
1637966635.3,286047015.3,N
1637966655.1,286047015.5,N
1637966675.9,286047008.4,N
1637966695.7,286047009.1,N
1637966715.6,286047006.6,N
1637966735.4,286047007.5,N
1637966755.2,286047001.1,N
1637966775.1,286046999.2,N
1637966776.0,286046999.2,N
1637966795.8,286046997.9,N
1637966815.6,286046995.5,N
1637966835.5,286046995.0,N
1637966855.3,286046994.2,N
1637966875.2,286046994.7,N
1637966895.9,286046994.7,N
1637966915.7,286046993.0,N
1637966935.6,286046990.1,N
1637966955.4,286046989.8,N
1637966975.2,286046988.2,N
1637966995.1,286046985.8,N
1637966996.0,286046985.8,N
1637967015.8,286046992.9,N
1637967035.7,286046999.3,N
1637967055.5,286047008.3,N
1637967075.3,286047007.4,N
1637967095.2,286046999.9,N
1637967115.0,286046999.1,N
1637967115.9,286046999.1,N
1637967135.8,286046995.5,N
1637967155.6,286046991.3,N
1637967175.4,286046983.9,N
1637967195.3,286046971.4,Y
1637967215.1,286046977.2,P
1637967235.9,286046975.2,N
1637967255.7,286046977.0,N
1637967275.5,286046974.1,N
1637967295.4,286046980.1,N
1637967315.2,286046978.8,N
1637967335.0,286046977.8,N
1637967335.9,286046977.8,Y
1637967355.8,286047005.2,P
1637967375.6,286047008.3,N
1637967395.5,286047007.3,N
1637967415.3,286047001.6,N
1637967435.1,286046995.0,N
1637967455.9,286046990.9,N
1637967475.7,286046992.7,N
1637967495.5,286046998.4,N
1637967515.4,286047008.6,N
1637967535.2,286047007.0,N
1637967555.1,286047001.6,N
1637967556.0,286047001.6,N
1637967575.8,286046999.0,N
1637967595.6,286047000.0,N
